Location: Peach Mountain Observatory
(42.3967°N, 83.9367°W)
Time: 19:44:41
(UTC-05:00)

Vanguard 2 Rocket - Visible Passes

Search period start: 17 January 2020 00:00
Search period end: 27 January 2020 00:00
Orbit: 554 x 3326 km, 32.9° (Epoch: 17 January)

Date Brightness Start Highest point End Pass type
(mag) Time Alt. Az. Time Alt. Az. Time Alt. Az.
17 Jan 9.6 05:50:36 10° SSE 05:52:41 12° SE 05:55:04 10° ESE visible
18 Jan 9.1 06:59:56 10° SSW 07:05:02 28° SSE 07:12:50 10° E visible
19 Jan 9.0 06:02:23 10° S 06:06:00 18° SE 06:10:47 10° ESE visible
20 Jan 8.8 07:13:29 10° SW 07:18:41 34° SSE 07:26:58 10° E visible
21 Jan 8.7 06:15:25 10° SSW 06:19:31 24° SSE 06:25:22 10° ESE visible
22 Jan 8.8 05:18:39 12° S 05:20:35 14° SE 05:23:39 10° ESE visible
23 Jan 8.4 06:28:56 10° SW 06:33:14 29° SSE 06:39:34 10° ESE visible
24 Jan 8.3 05:32:36 17° S 05:34:12 20° SSE 05:38:28 10° ESE visible
25 Jan 9.1 04:36:36 11° SE 04:36:36 11° SE 04:37:03 10° SE visible
25 Jan 8.2 06:42:46 10° SW 06:47:06 33° SSE 06:53:35 10° ESE visible
26 Jan 7.9 05:46:24 21° SSW 05:47:59 25° SSE 05:52:46 10° ESE visible
